TimeEDT,TemperatureF,Dew PointF,Humidity,Sea Level PressureIn,VisibilityMPH,Wind Direction,Wind SpeedMPH,Gust SpeedMPH,PrecipitationIn,Events,Conditions,WindDirDegrees,DateUTC
12:15 AM,52.7,46.4,79,30.21,10.0,Calm,Calm,-,N/A,,Overcast,0,2013-05-18 04:15:00
12:34 AM,51.6,46.0,81,30.21,10.0,Calm,Calm,-,N/A,,Scattered Clouds,0,2013-05-18 04:34:00
12:54 AM,50.7,44.6,80,30.20,10.0,Calm,Calm,-,N/A,,Clear,0,2013-05-18 04:54:00
1:15 AM,48.9,45.5,88,30.20,10.0,Calm,Calm,-,N/A,,Clear,0,2013-05-18 05:15:00
1:34 AM,49.1,45.1,86,30.19,10.0,Calm,Calm,-,N/A,,Clear,0,2013-05-18 05:34:00
1:54 AM,48.4,44.6,87,30.19,10.0,ESE,3.5,-,N/A,,Clear,120,2013-05-18 05:54:00
2:15 AM,49.8,43.3,78,30.19,10.0,ESE,4.6,-,N/A,,Clear,110,2013-05-18 06:15:00
2:34 AM,50.0,42.8,76,30.19,10.0,ESE,3.5,-,N/A,,Scattered Clouds,110,2013-05-18 06:34:00
2:54 AM,49.3,42.8,78,30.18,10.0,ESE,3.5,-,N/A,,Scattered Clouds,110,2013-05-18 06:54:00
3:14 AM,50.5,41.9,72,30.18,10.0,ESE,5.8,-,N/A,,Mostly Cloudy,110,2013-05-18 07:14:00
3:34 AM,50.2,41.9,73,30.19,10.0,Calm,Calm,-,N/A,,Mostly Cloudy,0,2013-05-18 07:34:00
3:55 AM,51.8,41.5,68,30.19,10.0,Calm,Calm,-,N/A,,Overcast,0,2013-05-18 07:55:00
4:14 AM,51.1,42.3,72,30.19,10.0,East,3.5,-,N/A,,Overcast,100,2013-05-18 08:14:00
4:34 AM,51.4,42.4,71,30.20,10.0,Calm,Calm,-,N/A,,Overcast,0,2013-05-18 08:34:00
4:54 AM,50.9,43.2,75,30.19,10.0,East,3.5,-,N/A,,Overcast,90,2013-05-18 08:54:00
5:14 AM,50.9,42.8,74,30.19,10.0,East,3.5,-,N/A,,Overcast,100,2013-05-18 09:14:00
5:35 AM,51.1,42.8,73,30.19,10.0,ESE,4.6,-,N/A,,Overcast,110,2013-05-18 09:35:00
5:54 AM,51.4,43.7,75,30.19,10.0,ESE,5.8,-,N/A,,Overcast,110,2013-05-18 09:54:00
6:14 AM,52.0,43.0,71,30.19,10.0,ESE,6.9,-,N/A,,Overcast,110,2013-05-18 10:14:00
6:35 AM,52.0,43.3,72,30.20,10.0,East,6.9,-,N/A,,Overcast,100,2013-05-18 10:35:00
6:54 AM,51.6,43.9,75,30.20,10.0,ESE,6.9,-,N/A,,Overcast,110,2013-05-18 10:54:00
7:14 AM,52.7,43.2,70,30.20,10.0,ESE,6.9,-,N/A,,Overcast,120,2013-05-18 11:14:00
7:35 AM,52.3,43.7,72,30.21,10.0,ESE,6.9,-,N/A,,Overcast,110,2013-05-18 11:35:00
7:54 AM,51.8,44.6,76,30.21,10.0,ESE,4.6,-,N/A,Rain,Light Rain,120,2013-05-18 11:54:00
8:14 AM,51.8,45.7,80,30.21,10.0,ESE,9.2,-,N/A,Rain,Light Rain,110,2013-05-18 12:14:00
8:35 AM,51.4,45.7,81,30.21,10.0,ESE,5.8,-,N/A,Rain,Light Rain,110,2013-05-18 12:35:00
8:54 AM,52.0,45.3,78,30.22,10.0,ESE,5.8,-,N/A,,Overcast,110,2013-05-18 12:54:00
9:14 AM,52.2,44.8,76,30.22,10.0,East,6.9,-,N/A,,Light Drizzle,100,2013-05-18 13:14:00
9:35 AM,52.5,44.6,74,30.21,10.0,ESE,5.8,-,N/A,Rain,Light Rain,110,2013-05-18 13:35:00
9:54 AM,52.9,45.5,76,30.22,10.0,ESE,5.8,-,N/A,,Light Drizzle,120,2013-05-18 13:54:00
10:14 AM,53.6,46.2,76,30.22,10.0,ESE,5.8,-,N/A,Rain,Light Rain,110,2013-05-18 14:14:00
10:35 AM,53.6,46.2,76,30.21,10.0,East,6.9,-,N/A,Rain,Light Rain,100,2013-05-18 14:35:00
10:54 AM,54.0,46.4,76,30.21,10.0,East,8.1,-,N/A,,Light Drizzle,100,2013-05-18 14:54:00
11:15 AM,54.5,46.8,75,30.20,10.0,ESE,5.8,-,N/A,,Overcast,110,2013-05-18 15:15:00
11:34 AM,54.7,47.3,76,30.20,10.0,ESE,5.8,-,N/A,Rain,Light Rain,110,2013-05-18 15:34:00
11:54 AM,56.3,48.6,75,30.19,10.0,ESE,8.1,-,N/A,Rain,Light Rain,110,2013-05-18 15:54:00
12:15 PM,56.5,46.9,70,30.19,10.0,ESE,9.2,-,N/A,,Overcast,110,2013-05-18 16:15:00
12:34 PM,57.2,47.3,69,30.18,10.0,East,11.5,-,N/A,,Overcast,100,2013-05-18 16:34:00
12:54 PM,58.1,46.9,66,30.18,10.0,ESE,9.2,-,N/A,,Overcast,110,2013-05-18 16:54:00
1:15 PM,58.1,46.8,66,30.17,10.0,ESE,9.2,-,N/A,,Overcast,110,2013-05-18 17:15:00
1:34 PM,58.1,46.4,65,30.17,10.0,East,9.2,-,N/A,,Overcast,100,2013-05-18 17:34:00
1:54 PM,58.1,46.6,65,30.17,10.0,ESE,9.2,-,N/A,,Overcast,110,2013-05-18 17:54:00
2:15 PM,58.1,46.6,65,30.16,10.0,ESE,9.2,-,N/A,,Overcast,110,2013-05-18 18:15:00
2:34 PM,58.5,47.3,66,30.16,10.0,ESE,9.2,-,N/A,,Overcast,110,2013-05-18 18:34:00
3:14 PM,59.9,46.9,62,30.14,10.0,ESE,10.4,-,N/A,,Overcast,110,2013-05-18 19:14:00
3:34 PM,60.6,47.1,61,30.14,10.0,ESE,10.4,-,N/A,,Overcast,110,2013-05-18 19:34:00
3:55 PM,62.8,48.0,59,30.13,10.0,East,9.2,-,N/A,,Overcast,100,2013-05-18 19:55:00
4:14 PM,64.6,48.0,55,30.12,10.0,East,10.4,-,N/A,,Overcast,90,2013-05-18 20:14:00
4:34 PM,66.6,47.5,50,30.11,10.0,East,9.2,-,N/A,,Overcast,100,2013-05-18 20:34:00
4:55 PM,66.2,45.0,46,30.10,10.0,ESE,11.5,-,N/A,,Mostly Cloudy,110,2013-05-18 20:55:00
5:14 PM,65.8,44.6,46,30.10,10.0,East,11.5,-,N/A,,Mostly Cloudy,100,2013-05-18 21:14:00
5:35 PM,66.2,44.6,46,30.09,10.0,ESE,10.4,-,N/A,,Overcast,110,2013-05-18 21:35:00
6:14 PM,66.2,44.1,45,30.08,10.0,ESE,13.8,-,N/A,,Clear,110,2013-05-18 22:14:00
6:35 PM,65.3,44.1,46,30.07,10.0,ESE,11.5,-,N/A,,Clear,110,2013-05-18 22:35:00
6:54 PM,66.4,44.8,46,30.07,10.0,ESE,11.5,-,N/A,,Clear,110,2013-05-18 22:54:00
7:14 PM,66.0,45.5,48,30.07,10.0,ESE,10.4,-,N/A,,Clear,110,2013-05-18 23:14:00
7:35 PM,65.3,45.1,48,30.07,10.0,ESE,9.2,-,N/A,,Clear,110,2013-05-18 23:35:00
7:54 PM,65.5,45.1,48,30.06,10.0,ESE,10.4,-,N/A,,Clear,110,2013-05-18 23:54:00
8:14 PM,65.1,45.0,48,30.06,10.0,East,10.4,-,N/A,,Clear,100,2013-05-19 00:14:00
8:35 PM,64.4,45.0,49,30.06,10.0,ESE,9.2,-,N/A,,Clear,110,2013-05-19 00:35:00
8:54 PM,64.4,45.3,50,30.05,10.0,ESE,10.4,-,N/A,,Clear,110,2013-05-19 00:54:00
9:14 PM,64.0,45.5,51,30.05,10.0,ESE,9.2,-,N/A,,Clear,110,2013-05-19 01:14:00
9:34 PM,63.7,45.5,52,30.05,10.0,ESE,8.1,-,N/A,,Clear,110,2013-05-19 01:34:00
9:54 PM,63.0,45.9,54,30.06,10.0,ESE,6.9,-,N/A,,Clear,110,2013-05-19 01:54:00
10:15 PM,62.6,45.9,54,30.06,10.0,ESE,6.9,-,N/A,,Clear,120,2013-05-19 02:15:00
10:34 PM,62.1,45.7,55,30.05,10.0,ESE,8.1,-,N/A,,Clear,110,2013-05-19 02:34:00
10:54 PM,61.9,45.5,55,30.05,10.0,ESE,8.1,-,N/A,,Scattered Clouds,110,2013-05-19 02:54:00
11:15 PM,61.7,45.5,55,30.05,10.0,ESE,6.9,-,N/A,,Mostly Cloudy,120,2013-05-19 03:15:00
11:34 PM,61.0,45.9,58,30.05,10.0,ESE,6.9,-,N/A,,Overcast,120,2013-05-19 03:34:00